Home   Weather   Częstochowa   Past weeks

Flag for Poland Past Weather in Częstochowa, Poland — Yesterday and Last 2 Weeks

Now
73 °F

Sunny.


Feels Like: 76 °F
Forecast: 59 / 66 °F
Wind: 7 mph from Northeast

Location: Katowice Airport

Current Time: Jul 24, 2017 at 7:04:38 pm

Latest Report: Jul 24, 2017 at 6:30 pm


Visibility: 10 mi

Pressure: 29.68 "Hg

Humidity: 61%

Dew Point: 59 °F

Location of CzęstochowaLocation

Past Weather in Częstochowa — Graph

°F

Częstochowa Temperature Yesterday

Maximum temperature yesterday: 82 °F (at 1:00 pm)
Minimum temperature yesterday: 63 °F (at 3:30 pm)
Average temperature yesterday: 70 °F

High & Low Weather Summary for the Past Weeks

 TemperatureHumidityPressure
High88 °F (Jul 20, 2:30 pm)100% (Jul 11, 5:00 am)30.21 "Hg (Jul 11, 5:00 am)
Low39 °F (Jul 14, 5:00 am)29% (Jul 19, 5:00 pm)29.68 "Hg (Jul 24, 6:00 pm)
Average66 °F71%29.98 "Hg
* Reported Jul 9 6:00 pm — Jul 24 6:00 pm, Częstochowa. Weather by CustomWeather, © 2017

Note: Actual official high and low records may vary slightly from our data, if they occured in-between our weather recording intervals... More about our weather records

Advertising

Częstochowa Weather History for the Previous 24 Hours

Scroll right to see more
 ConditionsComfort  
Time TempWeatherWind HumidityBarometerVisibility
6:00 pm
Mon, Jul 24
75 °FSunny.6 mph54%29.68 "Hg10 mi
5:30 pm75 °FSunny.6 mph57%29.71 "Hg10 mi
5:00 pm75 °FSunny.7 mph54%29.71 "Hg10 mi
4:30 pm75 °FSprinkles. Scattered clouds.7 mph54%29.71 "HgN/A
4:00 pm77 °FSprinkles. Scattered clouds.7 mph51%29.74 "HgN/A
3:30 pm75 °FPassing clouds.5 mph50%29.77 "HgN/A
3:00 pm75 °FPassing clouds.5 mph50%29.80 "HgN/A
2:30 pm75 °FPassing clouds.6 mph50%29.80 "HgN/A
2:00 pm75 °FPassing clouds.6 mph50%29.80 "HgN/A
1:30 pm75 °FOvercast.7 mph50%29.80 "HgN/A
1:00 pm77 °FPassing clouds.6 mph47%29.83 "HgN/A
12:30 pm75 °FPassing clouds.3 mph54%29.83 "HgN/A
12:00 pm75 °FPassing clouds.2 mph50%29.83 "HgN/A
11:30 am75 °FPassing clouds.5 mph54%29.83 "HgN/A
11:00 am73 °FSunny.3 mph57%29.83 "Hg10 mi
10:30 am73 °FPassing clouds.3 mph53%29.86 "HgN/A
10:00 am73 °FSunny.3 mph57%29.86 "Hg10 mi
9:30 am72 °FPassing clouds.5 mph65%29.86 "HgN/A
9:00 am70 °FPassing clouds.3 mph64%29.86 "HgN/A
8:30 am68 °FPassing clouds.6 mph73%29.86 "HgN/A
8:00 am66 °FPassing clouds.6 mph78%29.89 "HgN/A
7:30 am64 °FSunny.2 mph88%29.89 "Hg10 mi
6:30 am57 °FClear.1 mph94%29.89 "Hg4 mi
6:00 am55 °FFog.2 mph94%29.89 "Hg2 mi
5:30 am54 °FCool.1 mph94%29.92 "Hg1 mi
5:00 am55 °FCool.5 mph94%29.92 "Hg1 mi
4:30 am54 °FCool.1 mph100%29.92 "Hg1 mi
4:00 am57 °FCool.1 mph94%29.92 "Hg2 mi
3:30 am59 °FClear.2 mph94%29.92 "Hg5 mi
3:00 am61 °FLight fog.2 mph94%29.92 "Hg4 mi
2:30 am59 °FFog.2 mph94%29.92 "Hg2 mi
2:00 am59 °FLight fog.1 mph94%29.95 "Hg4 mi
1:30 am59 °FCool.2 mph100%29.95 "Hg4 mi
1:00 am63 °FLight fog.5 mph94%29.95 "HgN/A
12:30 am61 °FCool.3 mph94%29.95 "Hg1 mi
12:00 am61 °FLight fog.2 mph94%29.95 "Hg4 mi
11:30 pm
Sun, Jul 23
63 °FClear.2 mph88%29.95 "Hg6 mi
11:00 pm64 °FClear.7 mph88%29.95 "Hg10 mi
10:00 pm64 °FClear.5 mph88%29.95 "Hg10 mi
9:30 pm63 °FClear.6 mph94%29.98 "Hg10 mi
9:00 pm66 °FPassing clouds.3 mph83%29.95 "HgN/A
8:30 pm64 °FSunny.2 mph88%29.98 "Hg10 mi
8:00 pm66 °FSunny.7 mph83%29.98 "Hg10 mi
7:30 pm70 °FPassing clouds.9 mph78%29.98 "HgN/A
7:00 pm70 °FPassing clouds.7 mph78%29.95 "HgN/A
Weather by CustomWeather, © 2017

See weather overviewHow to use our weather pages